Location: Bastogne Gables
(35.1554°N, 78.9900°W)
Time: 02:48:52
(UTC+00:00)

Cosmos 1892 - Pass Details

Date: 29 October 2020
Orbit: 504 x 523 km, 82.5° (Epoch: 26 November)

Event Time Altitude Azimuth Distance (km) Brightness Sun altitude
Rises 23:17:17 0° 359° (N) 2,660 6.2 -11.5°
Reaches altitude 10° 23:19:29 10° 5° (N) 1,768 5.3 -11.9°
Maximum altitude 23:23:16 49° 81° (E) 678 2.9 -12.7°
Drops below altitude 10° 23:27:00 10° 157° (SSE) 1,753 5.2 -13.4°
Sets 23:29:10 0° 163° (SSE) 2,635 6.2 -13.9°
